Weather History for Jesup, GA

Change the Weather History Date:

Wednesday, December 19, 2012

  Actual Average (KLHW) Record (KLHW)
Temperature  
Mean Temperature 52 °F -  
Max Temperature 71 °F 64 °F 82 °F (1967)
Min Temperature 32 °F 37 °F 21 °F (1975)
Degree Days  
Heating Degree Days 14    
Growing Degree Days 2 (Base 50)    
Moisture  
Dew Point 40 °F    
Average Humidity 80    
Maximum Humidity 100    
Minimum Humidity 33    
Precipitation  
Precipitation 0.00 in - - ()
Sea Level Pressure  
Sea Level Pressure 30.10 in    
Wind  
Wind Speed 1 mph (West)    
Max Wind Speed 6 mph    
Max Gust Speed -    
Visibility 10 miles    
Events      
Averages and records for this station are not official NWS values.
T = Trace of Precipitation, MM = Missing Value Source: NWS Daily Summary

Daily Weather History Graph

Daily Weather History Graph

Search for Another Location

Airport:

Trip Planner

Search our weather history database for the weather conditions in past years. The results will help you decide how hot, cold, wet, or windy it might be!

Date:

Astronomy

Dec. 19, 2012 Rise Set
Actual Time 7:22 AM EST 5:27 PM EST
Civil Twilight 6:55 AM EST 5:54 PM EST
Nautical Twilight 6:24 AM EST 6:25 PM EST
Astronomical Twilight 5:55 AM EST 6:54 PM EST
Moon 11:54 AM EST (12/19) No Moon Set
Length of Visible Light 10h 59m
Length of Day
10h 05m
Waxing Crescent, 45% of the Moon is Illuminated
Dec 19
Waxing Crescent
Dec 20
First Quarter
Dec 28
Full
Jan 4
Last Quarter
Jan 11
New

Hourly Weather History & Observations

Time (EST) Temp. Windchill Dew Point Humidity Pressure Visibility Wind Dir Wind Speed Gust Speed Precip Events Conditions
12:15 AM 37.4 °F - 37.4 °F 100% 30.05 in 10.0 mi Calm Calm - N/A   Clear
12:35 AM 35.6 °F 32.8 °F 35.6 °F 100% 30.05 in 10.0 mi West 3.5 mph - N/A   Clear
12:55 AM 35.6 °F 32.8 °F 35.6 °F 100% 30.06 in 10.0 mi West 3.5 mph - N/A   Clear
1:15 AM 35.6 °F 32.8 °F 35.6 °F 100% 30.06 in 10.0 mi WNW 3.5 mph - N/A   Clear
1:35 AM 35.6 °F - 35.6 °F 100% 30.06 in 10.0 mi Calm Calm - N/A   Clear
1:55 AM 35.6 °F - 35.6 °F 100% 30.06 in 10.0 mi Calm Calm - N/A   Clear
2:15 AM 35.6 °F - 35.6 °F 100% 30.06 in 10.0 mi Calm Calm - N/A   Clear
2:35 AM 33.8 °F - 33.8 °F 100% 30.06 in 10.0 mi Calm Calm - N/A   Clear
2:55 AM 33.8 °F - 33.8 °F 100% 30.06 in 7.0 mi Calm Calm - N/A   Clear
3:15 AM 33.8 °F - 33.8 °F 100% 30.06 in 10.0 mi Calm Calm - N/A   Clear
3:35 AM 33.8 °F - 33.8 °F 100% 30.06 in 10.0 mi Calm Calm - N/A   Clear
3:55 AM 33.8 °F - 33.8 °F 100% 30.06 in 10.0 mi Calm Calm - N/A   Clear
4:15 AM 32.0 °F - 32.0 °F 100% 30.06 in 10.0 mi Calm Calm - N/A   Clear
4:35 AM 32.0 °F 28.7 °F 32.0 °F 100% 30.06 in 10.0 mi SSW 3.5 mph - N/A   Clear
4:55 AM 32.0 °F - 32.0 °F 100% 30.07 in 10.0 mi Calm Calm - N/A   Clear
5:15 AM 32.0 °F - 32.0 °F 100% 30.07 in 10.0 mi Calm Calm - N/A   Clear
5:35 AM 32.0 °F - 32.0 °F 100% 30.08 in 10.0 mi Calm Calm - N/A   Clear
5:55 AM 32.0 °F - 32.0 °F 100% 30.08 in 10.0 mi Calm Calm - N/A   Clear
6:15 AM 32.0 °F - 32.0 °F 100% 30.09 in 10.0 mi Calm Calm - N/A   Clear
6:35 AM 32.0 °F - 32.0 °F 100% 30.10 in 10.0 mi Calm Calm - N/A   Clear
7:15 AM 32.0 °F - 32.0 °F 100% 30.11 in 10.0 mi Calm Calm - N/A   Clear
7:35 AM 32.0 °F - 32.0 °F 100% 30.11 in 10.0 mi Calm Calm - N/A   Clear
7:55 AM 32.0 °F - 32.0 °F 100% 30.11 in 10.0 mi Calm Calm - N/A   Clear
8:15 AM 33.8 °F - 33.8 °F 100% 30.12 in 10.0 mi Calm Calm - N/A   Clear
8:35 AM 37.4 °F - 37.4 °F 100% 30.12 in 10.0 mi Calm Calm - N/A   Clear
8:55 AM 42.8 °F - 41.0 °F 93% 30.13 in 10.0 mi Calm Calm - N/A   Clear
9:15 AM 46.4 °F - 42.8 °F 87% 30.13 in 10.0 mi Calm Calm - N/A   Clear
9:35 AM 51.8 °F - 46.4 °F 82% 30.14 in 10.0 mi Calm Calm - N/A   Clear
9:55 AM 57.2 °F - 48.2 °F 72% 30.14 in 10.0 mi Calm Calm - N/A   Clear
10:15 AM 59.0 °F - 44.6 °F 59% 30.14 in 10.0 mi Calm Calm - N/A   Clear
10:35 AM 60.8 °F - 44.6 °F 55% 30.14 in 10.0 mi NW 3.5 mph - N/A   Clear
10:55 AM 62.6 °F - 44.6 °F 52% 30.14 in 10.0 mi NNW 3.5 mph - N/A   Clear
11:15 AM 64.4 °F - 44.6 °F 49% 30.14 in 10.0 mi Calm Calm - N/A   Clear
11:35 AM 66.2 °F - 42.8 °F 43% 30.14 in 10.0 mi Calm Calm - N/A   Clear
11:55 AM 66.2 °F - 42.8 °F 43% 30.13 in 10.0 mi NW 4.6 mph - N/A   Clear
12:15 PM 68.0 °F - 42.8 °F 40% 30.12 in 10.0 mi West 4.6 mph - N/A   Clear
12:35 PM 69.8 °F - 41.0 °F 35% 30.11 in 10.0 mi West 5.8 mph - N/A   Clear
12:55 PM 69.8 °F - 41.0 °F 35% 30.10 in 10.0 mi Calm Calm - N/A   Clear
1:15 PM 69.8 °F - 41.0 °F 35% 30.10 in 10.0 mi SW 3.5 mph - N/A   Clear
1:35 PM 69.8 °F - 41.0 °F 35% 30.10 in 10.0 mi West 4.6 mph - N/A   Clear
1:55 PM 71.6 °F - 42.8 °F 35% 30.10 in 10.0 mi West 4.6 mph - N/A   Clear
2:15 PM 71.6 °F - 42.8 °F 35% 30.08 in 10.0 mi NW 4.6 mph - N/A   Clear
2:35 PM 71.6 °F - 41.0 °F 33% 30.08 in 10.0 mi WNW 3.5 mph - N/A   Clear
2:55 PM 71.6 °F - 41.0 °F 33% 30.08 in 10.0 mi WNW 4.6 mph - N/A   Clear
3:15 PM 71.6 °F - 41.0 °F 33% 30.08 in 10.0 mi Calm Calm - N/A   Clear
3:35 PM 71.6 °F - 41.0 °F 33% 30.08 in 10.0 mi Calm Calm - N/A   Clear
3:55 PM 71.6 °F - 41.0 °F 33% 30.08 in 10.0 mi Calm Calm - N/A   Clear
4:15 PM 71.6 °F - 41.0 °F 33% 30.08 in 10.0 mi Calm Calm - N/A   Clear
4:35 PM 68.0 °F - 46.4 °F 46% 30.08 in 10.0 mi Calm Calm - N/A   Clear
4:55 PM 62.6 °F - 50.0 °F 63% 30.08 in 10.0 mi Calm Calm - N/A   Clear
5:15 PM 59.0 °F - 51.8 °F 77% 30.07 in 10.0 mi Calm Calm - N/A   Clear
5:35 PM 57.2 °F - 50.0 °F 77% 30.08 in 10.0 mi Calm Calm - N/A   Clear
5:55 PM 55.4 °F - 50.0 °F 82% 30.08 in 10.0 mi Calm Calm - N/A   Clear
6:15 PM 51.8 °F - 50.0 °F 94% 30.08 in 10.0 mi Calm Calm - N/A   Clear
6:35 PM 51.8 °F - 48.2 °F 88% 30.09 in 10.0 mi Calm Calm - N/A   Clear
6:55 PM 50.0 °F - 48.2 °F 94% 30.10 in 10.0 mi Calm Calm - N/A   Clear
7:15 PM 50.0 °F - 46.4 °F 87% 30.10 in 10.0 mi Calm Calm - N/A   Clear
7:35 PM 48.2 °F - 46.4 °F 93% 30.11 in 10.0 mi Calm Calm - N/A   Clear
7:55 PM 48.2 °F - 46.4 °F 93% 30.11 in 10.0 mi Calm Calm - N/A   Clear
8:15 PM 46.4 °F - 46.4 °F 100% 30.11 in 10.0 mi Calm Calm - N/A   Clear
8:35 PM 44.6 °F - 44.6 °F 100% 30.12 in 10.0 mi Calm Calm - N/A   Clear
8:55 PM 44.6 °F - 44.6 °F 100% 30.12 in 10.0 mi Calm Calm - N/A   Clear
9:15 PM 44.6 °F - 44.6 °F 100% 30.12 in 10.0 mi Calm Calm - N/A   Clear
9:35 PM 42.8 °F - 42.8 °F 100% 30.12 in 10.0 mi Calm Calm - N/A   Clear
9:55 PM 42.8 °F - 42.8 °F 100% 30.12 in 10.0 mi Calm Calm - N/A   Clear
10:15 PM 42.8 °F - 42.8 °F 100% 30.11 in 10.0 mi Calm Calm - N/A   Clear
10:35 PM 42.8 °F - 42.8 °F 100% 30.12 in 10.0 mi Calm Calm - N/A   Clear
10:55 PM 41.0 °F - 41.0 °F 100% 30.11 in 10.0 mi Calm Calm - N/A   Clear
11:15 PM 41.0 °F - 41.0 °F 100% 30.11 in 10.0 mi Calm Calm - N/A   Clear
11:35 PM 41.0 °F - 41.0 °F 100% 30.11 in 10.0 mi Calm Calm - N/A   Clear
11:55 PM 41.0 °F - 41.0 °F 100% 30.12 in 10.0 mi Calm Calm - N/A   Clear